Wind_Speed
24 24 24 24 24 25 24 24 24 24 24 24 24 24 24 25 25 25 26 26 26 27 27 28 28 28 28 28 28 27 27 27 28 28 28 28 29 30 31 30 29 29 29 29
25 25 24 24 24 24 25 25 24 24 24 24 23 23 23 23 23 24 25 25 25 25 26 27 27 27 28 29 29 28 28 28 28 28 29 29 29 30 31 30 29 29 29 29
25 25 24 24 24 24 24 24 24 24 24 23 22 22 22 22 23 23 23 24 25 25 25 25 26 27 28 29 29 28 28 28 28 29 29 29 29 29 29 30 29 29 29 29
24 24 24 24 23 23 23 23 24 24 25 24 23 22 21 22 22 22 22 23 24 25 25 25 25 26 26 27 28 28 28 28 28 29 30 30 29 29 30 30 30 29 29 29
24 23 24 24 23 23 23 23 24 24 25 25 24 24 21 22 22 22 22 23 23 24 24 25 25 25 26 27 27 28 28 29 28 29 29 30 30 30 30 30 30 30 30 30
24 24 24 24 24 23 23 23 24 25 26 26 24 24 23 22 22 22 22 23 23 24 24 24 24 25 25 25 26 27 28 29 29 28 28 29 29 29 30 30 30 30 30 30
24 24 23 24 24 23 23 24 25 26 26 26 25 25 24 22 22 22 22 23 24 24 25 25 25 25 25 26 26 27 28 28 28 29 29 29 30 29 30 30 30 30 30 30
24 24 23 23 24 24 24 25 25 26 26 26 26 26 25 24 23 23 23 23 24 25 26 26 25 26 26 27 27 28 28 28 29 30 30 30 30 30 30 29 29 30 31 30
24 25 24 24 24 24 25 25 25 27 27 27 28 27 26 25 24 24 24 24 24 25 26 25 25 26 27 27 28 28 28 28 29 29 30 30 30 29 29 29 29 30 30 31
26 26 26 26 26 25 26 25 26 27 28 29 29 28 27 25 25 25 25 25 25 25 26 26 25 25 26 27 27 28 28 28 28 28 29 29 29 29 30 30 30 30 30 30
27 28 27 28 28 27 27 26 27 28 29 30 29 28 27 27 26 26 26 26 26 27 27 27 27 27 27 27 27 28 28 28 29 29 29 29 29 29 29 30 30 31 31 32
29 29 29 29 29 29 29 29 28 28 29 30 30 29 27 27 27 27 28 28 28 28 28 27 28 28 28 28 28 29 29 29 29 29 29 29 29 30 30 30 31 32 32 32
30 30 30 30 31 31 31 31 31 31 31 31 31 29 28 28 29 29 30 30 30 29 29 29 29 29 29 28 29 29 30 30 30 29 30 30 30 30 31 31 32 32 32 33
31 32 32 32 32 32 32 32 32 33 33 33 32 31 30 30 31 31 31 31 31 31 31 30 30 30 30 30 30 30 30 30 30 30 31 30 30 31 32 33 33 33 34 34
33 34 34 34 34 35 34 33 33 34 34 35 33 33 32 32 32 32 32 32 32 32 32 31 30 31 32 32 32 32 32 31 31 32 32 33 33 33 33 34 34 34 36 36
35 36 36 37 37 38 38 36 35 34 35 35 35 34 32 32 33 33 33 33 33 34 33 33 33 33 33 34 34 34 34 34 34 34 34 35 35 34 35 35 35 36 36 37
37 38 38 39 39 41 41 38 37 36 36 37 37 35 35 35 34 35 35 35 35 36 36 36 36 35 35 35 36 36 36 36 36 36 36 36 36 37 37 37 37 38 38 38
39 39 39 40 41 43 40 39 39 39 38 38 38 38 38 37 37 37 37 37 37 37 37 38 38 38 38 37 38 38 38 38 38 38 38 38 38 38 38 39 40 40 41 41
41 41 41 42 43 44 41 40 40 41 41 40 40 40 40 39 40 39 38 38 38 39 39 39 39 40 40 40 40 40 40 40 40 40 40 40 40 40 40 40 41 41 42 42
43 43 43 44 44 44 42 41 42 43 44 42 41 41 41 41 41 40 40 40 40 40 40 40 40 40 40 40 40 41 41 42 42 42 42 42 42 42 42 42 42 43 43 43
43 43 44 45 45 44 42 42 42 43 42 43 43 43 42 43 43 42 42 42 41 41 41 41 41 41 41 41 41 41 41 42 42 43 43 43 44 44 44 44 44 44 44 44
44 44 45 45 45 43 41 42 42 42 43 43 43 43 44 43 43 43 43 44 44 44 43 43 42 42 42 42 42 42 42 43 43 44 44 44 45 45 46 46 46 46 46 46
44 44 44 45 44 43 42 42 42 43 43 44 44 45 45 45 44 44 45 45 45 45 45 45 44 44 44 44 43 43 43 44 44 45 45 46 46 46 47 47 47 47 47 47
44 44 45 45 44 43 43 44 45 45 45 45 45 45 46 46 46 46 46 46 46 46 46 46 46 46 45 45 45 45 45 45 45 45 45 45 46 46 47 48 48 48 48 48
44 45 45 45 43 43 44 44 46 47 47 47 47 47 46 47 47 46 47 47 47 48 48 48 48 47 47 47 47 46 46 46 46 46 46 46 47 47 48 48 48 49 50 50
44 44 44 44 44 45 45 46 47 48 48 48 48 48 48 48 48 47 47 47 48 48 48 48 48 48 49 48 48 48 47 47 47 47 47 47 48 48 48 48 48 49 50 50
Wind_Direction
253 254 253 256 257 259 260 259 259 259 260 259 259 259 256 255 254 253 253 254 253 255 256 258 259 259 260 261 262 263 263 264 265 267 268 269 269 266 264 265 266 267 269 271
253 254 254 256 258 258 258 258 259 259 261 262 260 259 257 256 254 254 254 253 254 255 257 259 260 260 261 262 263 264 264 264 264 266 267 268 269 267 265 265 267 268 268 270
255 255 254 254 256 257 257 257 257 258 260 261 261 258 256 256 256 255 254 255 255 257 258 260 260 261 262 262 263 264 264 265 265 266 267 268 269 268 268 267 267 267 267 270
255 254 252 252 254 257 257 257 257 258 260 260 259 260 255 256 256 256 256 257 258 259 260 262 262 261 261 262 263 264 264 263 265 267 267 268 269 270 269 268 268 267 267 269
254 253 251 250 253 255 256 256 257 258 259 258 257 260 256 256 256 255 257 259 260 261 262 263 263 263 263 263 264 264 264 264 265 266 268 269 269 270 269 268 268 268 267 267
253 252 252 252 252 254 254 255 256 257 258 257 257 259 257 256 257 257 257 259 259 262 265 265 264 263 264 265 266 267 266 265 265 266 268 269 269 270 269 268 268 268 268 267
252 252 252 252 251 252 253 254 256 258 257 258 257 258 258 258 259 259 260 260 261 263 265 266 265 265 265 267 268 268 268 267 265 265 267 269 270 270 269 268 267 267 268 268
251 251 251 252 253 253 253 255 257 260 261 260 258 258 259 262 263 262 263 263 264 265 266 266 265 265 266 268 269 268 268 267 265 265 266 268 269 269 269 268 267 267 267 269
252 251 249 250 252 254 255 256 258 262 262 262 260 259 261 263 265 265 265 266 267 266 267 267 268 269 270 270 269 269 267 266 266 265 264 265 267 270 269 269 269 271 269 270
253 253 251 251 251 252 255 257 258 259 262 263 262 262 263 265 267 266 266 268 268 267 268 268 270 272 274 273 271 269 267 267 267 267 265 265 267 269 268 269 270 271 271 272
255 255 254 254 252 252 252 255 258 260 261 263 264 264 264 266 268 269 268 268 268 269 269 268 269 271 273 273 272 271 269 268 268 268 265 264 266 268 269 269 270 271 270 272
255 255 255 255 254 254 254 255 257 259 260 261 263 265 265 268 269 269 269 269 269 270 270 269 269 271 272 272 271 271 269 269 269 268 265 265 266 268 269 270 270 271 272 273
256 257 258 257 256 256 256 255 257 259 260 261 263 265 266 268 268 268 268 269 268 269 269 269 270 271 271 272 272 271 270 270 269 268 266 266 266 266 267 268 269 270 271 273
257 257 259 260 260 260 258 257 257 258 258 261 263 265 265 265 266 266 268 268 269 269 269 269 270 270 271 271 271 271 270 269 268 268 267 267 266 267 268 268 268 270 271 271
258 258 258 259 260 260 260 260 259 259 259 261 263 264 265 264 265 265 266 267 268 269 269 269 269 270 271 271 271 270 270 269 269 269 268 268 267 268 269 268 268 270 271 271
260 260 259 259 260 261 260 259 259 259 260 261 262 262 264 264 264 264 265 265 267 268 268 269 269 270 271 272 271 270 270 270 270 269 269 269 269 269 269 269 269 270 270 271
260 262 262 261 260 260 259 259 260 261 261 262 262 263 264 263 263 264 265 265 265 268 269 269 270 270 271 271 270 270 271 271 270 269 269 270 270 270 270 270 270 270 271 273
261 262 263 263 262 261 262 261 260 261 261 262 263 263 264 264 264 265 266 266 265 266 268 269 270 270 270 270 270 270 270 270 270 269 269 270 270 271 271 271 271 272 273 274
260 261 263 264 264 263 262 262 262 262 261 263 264 263 264 266 265 266 267 268 267 267 268 269 271 270 269 270 270 269 269 270 270 270 270 270 271 271 272 272 273 274 275 276
260 261 262 264 265 265 264 263 263 263 263 263 264 265 265 265 266 267 268 268 269 268 269 269 270 271 270 270 270 269 269 270 270 270 270 271 271 272 272 272 273 274 275 276
261 262 263 264 265 265 265 265 265 265 266 265 265 265 265 266 267 267 267 268 269 269 270 270 270 270 270 270 270 270 270 270 271 271 271 271 272 272 272 272 273 274 275 276
263 263 263 263 264 266 267 266 266 266 265 265 265 265 266 266 267 268 268 268 269 270 271 271 270 270 270 270 270 270 271 270 271 272 273 273 273 272 272 272 273 274 274 275
262 264 264 263 264 265 264 264 264 264 264 264 265 266 266 266 267 268 269 269 269 269 270 270 270 270 270 270 270 270 270 270 271 271 272 273 273 273 273 273 273 273 274 275
263 263 264 263 263 264 264 263 263 263 263 264 265 266 266 267 267 268 269 270 269 269 269 269 269 269 269 270 270 270 270 270 271 271 272 273 273 273 273 273 273 273 274 274
263 263 264 264 265 264 263 263 264 264 264 265 266 266 266 267 267 268 269 270 270 269 269 269 269 269 269 270 269 270 270 270 270 271 272 272 273 273 273 273 273 273 274 274
262 263 265 266 266 265 264 263 264 264 265 265 265 266 266 267 268 268 269 270 270 269 269 269 269 269 270 270 271 270 270 271 271 272 272 273 274 274 274 274 274 274 274 274
Height
5728 5729 5730 5732 5733 5734 5734 5734 5734 5735 5734 5734 5735 5735 5736 5736 5737 5738 5738 5739 5740 5741 5741 5742 5743 5743 5744 5744 5745 5745 5745 5745 5744 5744 5744 5743 5742 5741 5741 5741 5740 5739 5738 5737
5722 5723 5726 5726 5726 5727 5727 5728 5729 5729 5728 5729 5729 5729 5729 5729 5731 5731 5732 5733 5734 5734 5735 5735 5736 5736 5737 5737 5737 5737 5737 5737 5737 5737 5736 5736 5734 5733 5733 5733 5733 5732 5731 5730
5714 5718 5718 5719 5720 5720 5721 5722 5723 5723 5723 5723 5723 5724 5724 5724 5725 5725 5726 5727 5727 5728 5728 5729 5729 5729 5729 5730 5730 5730 5730 5730 5730 5729 5728 5728 5727 5726 5726 5726 5725 5725 5724 5723
5708 5710 5711 5712 5713 5714 5715 5716 5716 5716 5716 5717 5718 5717 5719 5719 5719 5719 5720 5721 5721 5722 5722 5722 5722 5722 5722 5722 5722 5722 5723 5723 5722 5722 5721 5721 5720 5719 5719 5718 5718 5717 5717 5716
5702 5703 5705 5706 5708 5708 5709 5710 5710 5710 5710 5710 5711 5711 5714 5713 5713 5714 5715 5715 5715 5715 5715 5715 5715 5715 5715 5715 5715 5715 5715 5715 5715 5714 5714 5713 5713 5712 5711 5710 5710 5709 5709 5709
5696 5697 5698 5700 5701 5702 5702 5703 5703 5703 5703 5704 5706 5706 5707 5708 5708 5709 5709 5709 5709 5709 5709 5709 5709 5708 5708 5708 5708 5707 5707 5707 5707 5707 5706 5706 5705 5704 5703 5703 5702 5701 5701 5701
5689 5690 5691 5693 5694 5695 5696 5697 5697 5696 5696 5698 5700 5699 5701 5702 5702 5703 5703 5703 5703 5703 5702 5702 5702 5702 5701 5701 5701 5700 5700 5699 5699 5699 5699 5699 5698 5697 5696 5695 5694 5694 5693 5693
5682 5684 5685 5686 5687 5688 5689 5690 5691 5691 5691 5692 5692 5692 5695 5696 5696 5696 5696 5696 5696 5696 5696 5695 5695 5695 5694 5694 5693 5692 5692 5691 5691 5691 5691 5691 5690 5689 5688 5687 5687 5686 5685 5685
5675 5677 5679 5679 5681 5682 5683 5683 5685 5684 5684 5684 5685 5686 5688 5689 5689 5689 5689 5689 5689 5689 5689 5688 5688 5687 5687 5686 5685 5684 5683 5683 5683 5683 5683 5683 5682 5681 5680 5680 5679 5678 5677 5677
5668 5670 5672 5673 5674 5675 5676 5677 5677 5677 5676 5676 5678 5679 5681 5682 5682 5682 5682 5682 5682 5682 5681 5681 5680 5680 5679 5677 5676 5676 5675 5675 5675 5675 5675 5675 5674 5673 5673 5672 5672 5671 5670 5669
5661 5663 5664 5666 5667 5668 5669 5670 5669 5670 5670 5670 5670 5674 5673 5674 5674 5674 5674 5674 5674 5674 5674 5673 5672 5672 5671 5670 5669 5668 5667 5667 5667 5667 5666 5666 5666 5665 5665 5664 5664 5663 5662 5662
5653 5654 5655 5658 5659 5659 5661 5662 5662 5663 5663 5663 5663 5667 5666 5666 5666 5666 5666 5666 5666 5666 5666 5665 5664 5664 5663 5662 5661 5660 5659 5659 5659 5658 5658 5658 5658 5657 5657 5656 5656 5655 5654 5653
5646 5647 5647 5649 5652 5652 5652 5654 5654 5654 5654 5654 5655 5659 5658 5658 5658 5658 5658 5658 5658 5657 5657 5657 5656 5656 5655 5654 5653 5652 5652 5651 5651 5650 5650 5650 5649 5649 5648 5648 5647 5646 5646 5645
5637 5638 5640 5641 5641 5642 5644 5645 5645 5645 5646 5646 5648 5649 5650 5649 5649 5649 5649 5649 5648 5648 5648 5648 5647 5647 5646 5646 5645 5644 5643 5643 5642 5642 5642 5641 5641 5640 5640 5639 5638 5637 5637 5636
5627 5629 5630 5631 5632 5633 5634 5636 5636 5636 5637 5638 5639 5640 5641 5640 5640 5640 5640 5640 5639 5639 5639 5639 5639 5638 5637 5637 5636 5635 5635 5635 5634 5634 5633 5632 5632 5631 5630 5630 5629 5628 5627 5627
5618 5619 5620 5622 5622 5622 5623 5626 5627 5627 5628 5628 5629 5630 5631 5631 5630 5630 5630 5630 5630 5630 5630 5630 5629 5629 5628 5627 5627 5626 5626 5625 5625 5625 5624 5623 5622 5622 5621 5620 5619 5618 5617 5616
5608 5609 5610 5611 5611 5610 5612 5617 5617 5618 5619 5619 5619 5622 5621 5620 5620 5620 5620 5620 5620 5620 5620 5619 5619 5619 5619 5618 5617 5616 5616 5615 5615 5614 5614 5613 5612 5611 5610 5609 5609 5608 5606 5605
5598 5598 5598 5598 5599 5598 5606 5606 5606 5606 5607 5608 5608 5609 5609 5609 5609 5609 5610 5610 5610 5610 5609 5609 5609 5608 5608 5607 5606 5606 5605 5604 5604 5603 5603 5602 5602 5600 5599 5599 5598 5596 5595 5594
5586 5587 5586 5586 5586 5587 5593 5594 5594 5594 5596 5597 5597 5597 5598 5597 5597 5599 5599 5598 5598 5598 5598 5598 5597 5597 5596 5596 5595 5594 5593 5593 5592 5592 5591 5591 5590 5589 5588 5587 5586 5585 5583 5582
5574 5575 5575 5574 5573 5575 5582 5582 5581 5582 5582 5585 5584 5585 5586 5585 5586 5588 5587 5586 5586 5586 5586 5586 5585 5585 5584 5584 5583 5582 5582 5581 5580 5580 5579 5578 5578 5577 5576 5575 5574 5572 5571 5569
5561 5561 5562 5562 5560 5563 5569 5569 5568 5570 5572 5572 5572 5572 5573 5573 5574 5574 5574 5574 5573 5574 5574 5573 5573 5573 5572 5571 5571 5570 5569 5569 5568 5567 5566 5566 5565 5564 5563 5562 5561 5559 5558 5557
5548 5548 5549 5549 5549 5554 5556 5555 5556 5556 5556 5557 5558 5558 5559 5560 5560 5560 5560 5560 5560 5560 5560 5560 5560 5560 5559 5558 5558 5557 5557 5556 5555 5554 5553 5552 5551 5550 5549 5548 5547 5546 5544 5543
5535 5536 5536 5537 5540 5542 5542 5542 5542 5542 5543 5543 5544 5545 5545 5546 5546 5546 5546 5546 5547 5546 5546 5546 5546 5546 5546 5545 5544 5544 5543 5542 5541 5540 5539 5538 5537 5536 5535 5534 5533 5531 5530 5528
5521 5522 5522 5523 5526 5527 5528 5527 5527 5528 5528 5529 5530 5531 5531 5531 5532 5532 5532 5532 5532 5532 5532 5532 5532 5532 5532 5531 5530 5530 5529 5528 5527 5526 5525 5523 5522 5521 5520 5519 5517 5516 5515 5513
5508 5508 5508 5509 5512 5513 5514 5514 5513 5514 5514 5515 5516 5516 5516 5516 5517 5517 5517 5517 5517 5517 5517 5517 5517 5517 5517 5516 5516 5515 5514 5514 5513 5511 5510 5509 5508 5506 5505 5503 5502 5501 5499 5498
5495 5495 5496 5497 5499 5498 5500 5500 5499 5499 5500 5500 5500 5501 5501 5501 5502 5502 5502 5502 5502 5502 5502 5502 5502 5502 5501 5501 5501 5500 5499 5499 5498 5497 5496 5494 5493 5491 5490 5488 5487 5485 5484 5482